User: anonymous   Login
Location: Unspecified
(0.0000°N, 0.0000°E)
Time: 11:49:48
(UTC+00:00)
Language:

FALCON 9 R/B - Orbit

View from above orbital plane
View from above orbital plane
View from above satellite
View from above satellite

Ground track
Ground track

The orbit data is extracted from the following two-line orbital elements,

1 37253U 10066K   16346.13715170  .00003559  00000-0  32384-3 0  9993
2 37253  34.5158 271.3042 4290137 155.2070 233.6877  6.88285062147624
Epoch (UTC): 11 December 2016 03:17:29
Eccentricity: 0.4290137
inclination: 34.5158°
perigee height: 287 km
apogee height: 10304 km
right ascension of ascending node: 271.3042°
argument of perigee: 155.2070°
revolutions per day: 6.88285062
mean anomaly at epoch: 233.6877°
orbit number at epoch: 14762

The dashed part of the orbit path shows where the satellite is in the earth's shadow,  

DLR